SOYUZ-MS 17

Last updated on Sun Apr 18 2021 00:02:12 GMT+0000 (Coordinated Universal Time)

1 46613U 20072A 21106.68322208 .00000790 00000-0 22564-4 0 9991 2 46613 51.6449 286.9319 0002784 232.2585 227.0793 15.48889802 28594
UTC large
Height (km)
Speed (km/s)
/
Latitude / Longitude
Inclination (degrees)
Orbital Period (minutes)
Azimuth
Elevation
Range (km)
Doppler Factor

Next 0 passes for location: London (51.5072 / 0.1276)

Sorry there are no passes over London.